Wetbulb
66.32 69.11 70.32 69.10 70.18 72.00 73.62 73.99 76.54 77.20 78.25 79.60 80.44 79.90 80.39 80.81 81.04 77.24 76.45 77.71 75.29 73.06 72.72 73.88 78.10 75.41 74.49 72.90 73.30 73.13 73.38 70.89 70.24
63.91 68.20 69.85 69.63 69.89 70.72 72.75 73.90 75.94 76.95 78.44 79.37 80.01 78.17 80.63 80.62 80.53 80.07 77.22 78.81 78.71 75.52 76.43 73.69 74.71 75.36 73.75 72.74 72.90 73.07 73.19 69.96 71.35
63.87 67.27 69.77 69.93 69.78 70.55 72.68 73.13 75.01 77.07 78.26 78.95 78.82 79.31 79.65 79.31 79.89 80.74 80.40 80.68 79.82 77.79 77.51 76.74 76.57 74.69 73.59 72.99 72.72 72.57 72.62 71.87 71.73
63.63 66.02 69.19 70.04 69.96 70.66 72.02 72.68 73.90 75.12 76.34 78.04 78.35 78.88 79.12 79.19 78.81 79.38 80.28 79.88 79.53 79.34 76.77 77.41 76.00 75.47 73.32 72.32 72.40 71.53 71.50 71.60 70.87
64.43 65.86 68.66 70.29 70.44 70.72 71.27 72.25 72.32 73.45 74.78 74.66 77.01 78.17 79.18 78.97 79.55 79.28 78.91 79.55 79.88 79.88 78.11 77.26 76.21 75.18 73.61 73.02 71.41 71.89 70.79 70.15 69.78
64.43 65.79 67.18 69.79 70.71 70.76 71.38 72.02 73.29 72.58 74.25 73.61 74.86 77.54 77.59 78.63 78.45 79.19 78.66 79.59 79.80 79.68 78.22 77.46 74.37 74.53 71.76 72.47 70.20 69.24 69.44 71.01 70.56
64.13 64.88 69.28 69.26 70.69 72.38 73.02 74.05 74.63 74.70 74.15 73.76 74.50 75.43 75.73 77.19 78.22 78.51 78.89 79.91 79.47 79.56 78.96 76.65 73.63 74.38 73.11 71.68 69.10 69.34 68.56 69.54 69.14
63.27 63.71 67.38 70.23 71.10 74.66 75.79 75.57 76.12 76.33 75.85 76.28 75.67 76.46 76.24 77.08 78.70 79.24 79.43 79.17 79.69 79.49 77.93 76.09 74.48 73.66 72.86 71.32 69.39 68.37 66.77 69.21 69.06
62.61 63.34 64.68 70.18 71.47 72.90 76.08 76.23 77.13 77.38 77.24 77.66 77.50 78.04 77.45 78.53 79.69 79.32 79.13 79.47 79.56 79.17 77.80 75.97 74.58 72.81 71.59 68.93 67.31 63.34 64.75 68.87 69.00
63.04 63.42 65.25 67.83 71.11 72.34 75.01 75.47 77.95 77.57 78.42 78.34 78.53 78.82 80.18 79.64 80.48 79.90 79.98 79.67 79.23 78.08 77.07 74.76 73.07 72.27 70.58 69.20 68.04 62.24 62.47 64.13 68.49
64.02 65.68 66.76 67.47 70.71 72.72 75.60 75.51 75.71 77.48 77.34 79.07 79.31 79.76 79.36 80.62 80.48 80.46 80.02 78.97 78.31 76.96 74.62 72.14 72.45 71.82 70.00 68.21 68.84 62.17 61.26 63.37 66.94
65.10 64.82 66.79 67.69 71.96 73.19 76.93 76.63 78.16 78.14 77.30 78.19 78.49 78.64 79.11 79.71 79.96 79.44 79.31 77.77 76.77 74.55 72.76 71.23 69.80 69.74 68.78 68.46 69.96 60.26 59.32 62.05 65.11
64.12 67.41 67.89 68.89 72.83 73.71 75.66 77.22 76.35 76.85 75.59 76.20 76.53 77.60 77.81 79.26 79.24 78.89 77.77 76.68 75.03 74.65 73.41 70.74 69.17 68.24 67.73 65.13 70.10 59.28 58.09 61.23 66.89
66.39 68.49 69.33 73.33 73.89 75.29 76.51 76.49 75.97 76.59 76.29 75.39 75.98 76.49 76.57 77.67 78.17 78.41 78.11 77.04 74.95 73.66 72.57 70.51 69.21 67.51 68.90 69.99 69.49 68.38 55.55 55.85 66.23
69.14 69.38 71.07 72.87 73.60 74.12 75.54 76.55 76.48 76.83 76.13 77.52 78.22 78.09 77.36 77.52 78.16 76.61 75.38 74.75 73.46 72.28 69.84 67.48 66.77 67.51 68.06 70.33 71.89 61.62 55.05 54.47 56.59
70.87 71.42 71.72 72.49 72.89 73.50 74.74 76.28 76.45 76.26 78.66 78.95 78.56 77.32 77.74 77.35 76.01 74.32 74.00 72.63 70.89 69.45 68.34 66.47 66.15 66.73 68.81 69.58 68.22 70.12 54.40 53.85 54.58
70.07 71.16 71.60 72.40 72.48 72.64 74.66 76.73 76.79 76.77 76.39 76.95 76.56 76.27 73.91 73.32 72.22 71.03 71.25 70.99 69.75 67.83 67.19 66.80 67.12 67.31 67.67 67.63 67.26 64.79 66.67 65.09 60.78
68.76 69.30 69.81 70.99 71.08 71.62 72.41 73.98 74.34 74.87 75.40 76.01 74.39 71.75 70.24 70.02 69.60 69.92 67.55 63.80 64.55 67.84 62.67 62.59 67.98 67.33 68.12 66.64 65.72 66.09 58.69 59.27 63.08
68.86 68.73 69.50 69.71 70.62 71.54 72.68 73.37 73.49 74.33 75.19 74.32 72.29 70.94 69.98 70.07 69.47 67.42 66.07 63.54 62.44 45.74 47.53 44.62 44.18 46.37 59.52 59.42 51.11 46.29 44.98 44.38 46.76
61.17 67.24 69.19 69.48 70.04 71.00 72.24 72.18 72.32 73.37 74.11 73.70 72.97 72.17 72.09 70.68 69.13 68.44 68.48 68.15 67.27 64.93 53.46 44.47 42.96 43.64 46.60 49.70 47.33 42.94 41.97 41.90 42.24
MSLP
993.57 995.09 996.61 997.76 998.96 1000.27 1001.56 1003.00 1004.20 1005.26 1006.29 1007.46 1008.38 1009.05 1009.68 1010.41 1011.02 1011.23 1011.51 1011.72 1011.68 1012.18 1012.10 1012.51 1013.31 1014.30 1014.83 1015.50 1015.78 1015.95 1016.20 1016.74 1016.92
992.77 993.88 995.32 996.49 997.83 999.25 1000.55 1001.83 1002.99 1004.19 1005.34 1006.58 1007.47 1008.13 1008.95 1009.70 1010.33 1010.62 1010.50 1010.93 1011.55 1011.63 1011.98 1012.08 1012.96 1013.76 1014.53 1015.03 1015.21 1015.63 1016.13 1016.33 1016.69
992.31 993.03 994.27 995.40 996.81 998.25 999.66 1000.92 1002.17 1003.46 1004.51 1005.52 1006.53 1007.28 1007.98 1008.73 1009.36 1009.93 1010.31 1010.41 1010.70 1011.21 1011.66 1012.37 1012.73 1013.56 1013.96 1014.34 1015.02 1015.62 1016.19 1016.11 1016.40
991.59 992.22 993.38 994.49 995.65 997.06 998.55 999.88 1000.99 1002.18 1003.36 1004.44 1005.45 1006.25 1006.93 1007.64 1008.36 1009.02 1009.67 1009.79 1010.21 1010.88 1011.43 1011.67 1012.38 1013.28 1013.92 1014.37 1014.63 1015.56 1016.51 1016.29 1016.17
990.72 991.29 992.34 993.67 994.60 995.99 997.31 998.62 999.75 1000.79 1002.08 1003.18 1004.16 1005.08 1005.94 1006.60 1007.39 1008.06 1008.46 1008.99 1009.61 1010.31 1010.94 1011.45 1012.14 1012.70 1013.42 1014.08 1014.78 1015.15 1015.08 1016.71 1016.31
990.71 991.01 991.64 992.72 993.84 994.71 996.00 997.37 998.52 999.44 1000.62 1001.54 1002.72 1003.92 1004.71 1005.59 1006.34 1006.83 1007.18 1008.03 1008.84 1009.47 1010.35 1010.95 1011.60 1012.26 1012.75 1013.51 1013.74 1013.21 1014.45 1014.04 1015.80
990.43 990.87 992.06 992.47 993.15 993.84 994.65 996.00 997.37 998.36 999.17 1000.11 1001.22 1002.36 1003.38 1004.27 1004.99 1005.61 1006.36 1007.10 1007.90 1008.51 1009.41 1010.17 1010.66 1011.19 1011.83 1012.31 1012.75 1012.73 1013.31 1012.57 1014.35
990.27 990.50 991.31 992.47 992.88 993.29 993.97 995.14 996.39 997.47 998.21 999.07 999.93 1001.01 1001.99 1002.86 1003.92 1004.86 1005.60 1006.22 1006.86 1007.69 1008.74 1009.51 1010.05 1010.42 1010.94 1011.53 1011.73 1011.64 1012.02 1012.25 1013.49
989.91 990.20 990.38 991.63 992.65 993.13 993.69 994.58 995.60 996.59 997.57 998.18 999.25 1000.03 1000.77 1001.79 1002.88 1003.92 1004.68 1005.46 1006.15 1007.06 1008.05 1009.05 1009.67 1009.73 1010.02 1010.60 1011.51 1012.06 1012.07 1011.83 1013.33
989.44 989.93 989.93 990.33 991.82 992.70 993.01 994.12 995.08 995.88 997.01 997.99 998.64 999.45 1000.07 1000.96 1002.00 1002.94 1003.82 1004.82 1005.65 1006.36 1007.11 1008.29 1009.04 1009.98 1010.48 1010.86 1011.57 1012.18 1012.13 1011.96 1012.72
988.64 989.10 989.33 989.48 990.71 992.05 992.87 993.80 994.60 995.69 996.64 997.56 998.20 999.04 999.85 1000.49 1001.37 1002.38 1003.40 1004.23 1004.87 1005.83 1006.98 1007.84 1008.62 1009.43 1010.30 1010.91 1011.13 1011.71 1012.06 1012.21 1012.82
987.87 988.14 988.41 988.61 989.97 991.25 992.57 993.25 993.88 995.08 996.10 997.29 998.04 998.69 999.67 1000.42 1001.17 1001.99 1003.05 1003.94 1004.72 1005.67 1006.69 1007.44 1008.20 1009.01 1009.53 1010.17 1010.88 1011.26 1011.50 1011.88 1012.34
987.22 987.88 988.18 988.41 989.72 990.87 992.18 992.94 993.70 994.90 995.88 996.99 997.79 998.55 999.59 1000.35 1001.16 1001.87 1002.64 1003.72 1004.50 1005.30 1006.26 1007.19 1007.98 1008.60 1009.21 1009.54 1009.77 1010.46 1011.07 1011.40 1011.75
986.85 988.04 988.76 988.99 989.93 990.91 992.18 993.02 993.63 994.77 995.56 996.56 997.48 998.43 999.44 1000.33 1001.17 1001.92 1002.54 1003.57 1004.68 1005.50 1006.34 1006.96 1007.53 1008.31 1008.51 1008.49 1008.96 1009.54 1010.56 1011.30 1011.46
988.32 988.76 989.16 989.75 990.50 991.85 992.52 993.13 994.12 995.18 995.85 996.66 997.38 998.35 999.36 1000.32 1001.13 1001.91 1002.69 1003.70 1004.68 1005.59 1006.46 1007.26 1007.69 1008.04 1008.22 1008.02 1008.77 1009.49 1010.31 1010.63 1011.02
989.73 990.38 990.65 990.60 991.47 992.94 992.91 993.91 994.90 995.59 996.35 997.13 997.78 998.60 999.14 1000.30 1001.57 1002.34 1003.19 1003.92 1004.83 1005.66 1006.44 1006.97 1007.44 1007.68 1007.59 1007.96 1008.78 1009.36 1010.30 1010.63 1010.85
991.29 991.56 991.96 992.29 992.81 993.96 993.81 994.65 995.59 996.51 997.34 997.97 998.64 999.27 1000.54 1001.31 1002.24 1003.05 1003.81 1004.41 1005.17 1005.83 1006.45 1006.98 1007.20 1007.30 1007.40 1007.70 1008.22 1009.16 1009.73 1010.26 1010.88
993.18 993.22 993.34 993.63 994.41 995.34 995.24 995.86 996.72 997.44 998.17 998.64 999.35 1000.52 1001.43 1002.03 1002.73 1003.37 1004.28 1005.18 1006.03 1006.06 1006.76 1007.25 1007.44 1007.28 1007.16 1007.38 1008.38 1009.12 1009.63 1010.21 1010.20
995.18 995.23 995.19 994.86 995.18 995.93 996.28 996.71 997.38 998.06 998.61 999.35 999.95 1000.79 1001.44 1001.71 1002.49 1003.47 1004.32 1005.36 1006.40 1007.44 1007.58 1007.95 1007.74 1007.35 1007.39 1008.63 1009.04 1009.45 1009.95 1010.49 1010.44
997.00 996.42 995.74 995.71 996.24 996.91 997.09 997.61 997.90 998.36 999.06 999.51 1000.01 999.96 1000.36 1000.71 1001.31 1002.43 1003.21 1003.78 1004.73 1006.17 1008.00 1007.93 1007.99 1007.98 1008.26 1008.63 1009.25 1009.88 1010.30 1010.53 1010.58
Wind_Speed
15 22 22 24 25 23 21 22 20 20 20 19 18 18 16 14 15 12 11 11 8 9 8 8 11 11 10 8 8 7 6 6 6
12 20 23 26 25 24 22 22 22 21 19 19 19 20 15 15 14 15 13 12 12 9 9 7 10 12 11 10 9 9 7 7 7
13 18 22 23 23 24 21 23 22 21 20 19 18 18 17 16 16 15 13 11 11 12 9 8 11 11 12 11 9 9 8 7 7
14 17 19 21 23 23 23 23 22 22 21 20 20 18 17 17 16 17 15 14 13 11 8 12 10 11 11 10 10 8 7 7 6
16 16 18 19 22 23 23 23 23 23 23 23 21 19 17 18 16 16 17 16 14 13 13 11 12 12 11 11 7 8 9 8 9
19 5 10 18 19 22 24 24 22 24 23 24 23 20 20 18 18 18 18 17 15 15 14 13 13 14 12 13 11 13 12 13 10
10 8 8 12 17 19 22 22 21 20 22 23 22 23 21 19 20 19 17 15 16 16 16 16 15 16 16 15 13 14 12 12 11
16 14 11 13 16 15 17 19 20 20 19 19 20 19 20 19 18 17 16 16 16 15 16 16 17 18 18 16 16 12 13 11 11
17 17 13 14 16 17 18 19 18 19 19 18 19 18 19 18 17 17 16 15 15 15 15 15 16 19 19 16 10 9 12 12 10
20 21 20 12 15 18 18 20 17 18 18 16 16 16 15 15 16 17 16 14 14 16 17 15 17 15 15 16 13 8 10 9 11
20 21 22 15 14 17 18 20 20 18 18 16 16 15 15 13 14 15 14 15 16 14 13 14 14 14 15 13 12 10 7 7 9
22 18 18 13 14 16 16 18 17 17 17 16 15 15 14 13 14 14 14 15 14 12 13 12 12 12 14 13 10 11 13 11 9
21 13 13 11 14 17 18 16 19 18 18 17 16 15 15 13 13 13 14 12 11 11 12 11 10 12 13 14 14 13 16 15 7
14 14 15 10 15 13 14 15 17 17 17 17 16 14 14 13 12 12 12 10 9 10 8 8 10 10 11 14 13 11 13 14 8
6 9 13 16 14 14 15 14 14 13 13 13 13 13 12 12 11 10 7 9 8 9 9 8 8 10 10 8 7 8 11 13 14
9 11 12 13 14 14 14 12 12 13 12 11 11 11 12 12 8 8 8 10 9 8 9 8 8 10 9 6 5 6 8 10 8
12 13 13 14 16 14 14 12 12 12 12 11 11 11 11 9 9 9 8 7 8 7 6 6 4 3 3 5 6 7 7 6 5
12 12 14 14 15 13 15 14 12 11 9 11 12 11 10 9 9 9 8 7 2 5 4 0 5 8 7 4 5 4 6 2 7
11 11 12 13 15 14 14 14 13 11 11 11 12 13 11 11 9 9 8 8 8 14 12 5 8 11 5 4 7 11 12 9 9
12 10 12 13 13 11 12 12 12 11 10 12 12 9 10 10 12 10 9 8 10 9 6 11 11 10 8 4 11 11 12 10 10
Wind_Direction
199 188 202 203 201 201 194 197 196 195 187 189 192 196 198 195 206 214 211 205 224 207 220 191 148 183 184 214 190 209 179 210 228
208 184 201 202 198 197 195 196 195 195 192 189 193 196 192 197 200 217 212 215 196 221 210 193 174 176 192 193 203 201 182 231 193
212 196 202 202 197 195 195 196 195 194 193 190 194 197 194 197 202 204 223 207 205 214 200 227 165 183 190 189 193 194 203 198 213
218 202 200 205 196 197 193 194 195 193 195 194 194 198 195 200 201 204 205 218 203 199 216 181 199 186 195 188 177 185 212 254 285
210 198 191 207 203 196 194 196 196 193 194 198 197 197 197 197 200 203 206 210 203 192 207 192 199 179 188 183 175 180 170 255 266
249 144 198 192 207 198 197 195 198 197 194 199 198 197 197 199 200 203 209 200 204 196 193 197 188 188 180 178 183 175 196 180 233
240 218 200 226 205 207 196 194 194 198 195 199 199 194 202 199 203 207 204 203 200 194 195 198 191 186 184 184 191 189 192 172 207
247 243 182 215 222 208 200 191 191 195 200 195 197 194 198 200 197 202 205 204 203 200 200 198 192 185 186 189 197 195 184 181 204
246 267 246 203 218 220 195 195 199 189 197 197 197 193 200 195 189 195 203 202 201 201 199 201 201 198 192 190 201 208 191 168 212
247 252 257 213 216 219 201 197 194 196 192 200 193 204 196 197 186 193 194 195 202 200 200 193 202 208 202 200 203 218 204 184 218
235 239 251 238 208 209 198 199 193 196 188 193 198 192 199 193 193 189 188 197 208 192 193 199 205 202 208 210 218 201 234 197 216
246 241 249 223 199 201 192 194 180 182 181 185 192 186 191 198 194 194 197 203 202 185 189 198 204 207 206 213 226 183 188 196 201
223 246 254 228 190 189 180 189 176 177 181 182 187 186 186 189 192 195 199 195 194 185 189 192 190 206 212 212 222 189 197 198 201
223 219 230 182 182 176 172 183 177 178 175 179 177 173 175 182 187 194 196 176 177 186 193 184 189 205 211 218 210 216 165 186 208
207 207 186 177 166 169 167 176 155 171 160 153 155 158 166 173 176 190 167 159 155 167 168 175 184 207 216 216 224 210 193 194 213
159 168 174 154 145 153 145 141 160 148 138 139 143 153 157 164 135 128 141 149 153 164 170 180 195 207 217 212 193 183 138 168 185
121 120 121 120 125 133 121 125 127 120 133 141 145 139 118 124 132 127 144 156 154 161 174 186 188 213 206 203 209 181 180 201 194
93 98 108 113 117 120 111 108 111 113 125 138 125 126 129 132 134 139 118 77 94 149 77 203 195 219 218 178 160 160 58 170 212
82 98 100 99 97 99 103 107 113 117 126 126 132 136 147 150 137 132 132 135 112 47 74 70 57 49 87 95 86 114 108 109 96
40 59 84 91 94 102 109 114 112 121 130 140 161 160 136 147 152 143 162 159 157 156 98 78 60 61 85 98 133 132 134 127 109